| time (UTC) | temp C | wind direction | speed KPH | gust KPH | rain 1hr cm | rain 24hr cm | rain mn cm | humidity % | barometer mb |
| 20260905115011 | 15 | 252 | 0.0 | 1.6 | 0.00 | 0.00 | 0.00 | 70 | 987.2 |
| 20260905114509 | 14 | 252 | 0.0 | 4.8 | 0.00 | 0.00 | 0.00 | 70 | 987.2 |
| 20260905114008 | 14 | 252 | 0.0 | 8.0 | 0.00 | 0.00 | 0.00 | 70 | 987.1 |
| 20260905113508 | 14 | 254 | 4.8 | 8.0 | 0.00 | 0.00 | 0.00 | 70 | 987.2 |
| 20260905113011 | 15 | 255 | 3.2 | 6.4 | 0.00 | 0.00 | 0.00 | 70 | 987.1 |
| 20260905112506 | 14 | 250 | 3.2 | 6.4 | 0.00 | 0.00 | 0.00 | 70 | 987.0 |
| 20260905112005 | 14 | 360 | 0.0 | 1.6 | 0.00 | 0.00 | 0.00 | 70 | 986.5 |
| 20260905111506 | 14 | 360 | 0.0 | 0.0 | 0.00 | 0.00 | 0.00 | 70 | 986.2 |
| 20260905111004 | 14 | 360 | 0.0 | 1.6 | 0.00 | 0.00 | 0.00 | 70 | 985.9 |
| 20260905110503 | 14 | 360 | 0.0 | 3.2 | 0.00 | 0.00 | 0.00 | 70 | 985.8 |
| 20260905110004 | 14 | 124 | 0.0 | 6.4 | 0.00 | 0.00 | 0.00 | 70 | 985.7 |
| 20260905105507 | 14 | 124 | 3.2 | 6.4 | 0.00 | 0.00 | 0.00 | 70 | 985.6 |
| 20260905105002 | 14 | 106 | 0.0 | 4.8 | 0.00 | 0.00 | 0.00 | 70 | 985.6 |
| 20260905104502 | 14 | 109 | 0.0 | 3.2 | 0.00 | 0.00 | 0.00 | 70 | 985.7 |
| 20260905104004 | 14 | 109 | 0.0 | 4.8 | 0.00 | 0.00 | 0.00 | 70 | 985.6 |
| 20260905103505 | 14 | 109 | 0.0 | 6.4 | 0.00 | 0.00 | 0.00 | 70 | 985.3 |
| 20260905103006 | 14 | 119 | 1.6 | 6.4 | 0.00 | 0.00 | 0.00 | 70 | 985.3 |
| 20260905102501 | 14 | 129 | 1.6 | 4.8 | 0.00 | 0.00 | 0.00 | 70 | 985.3 |
| 20260905102004 | 14 | 127 | 0.0 | 4.8 | 0.00 | 0.00 | 0.00 | 70 | 985.3 |
| 20260905101502 | 14 | 360 | 1.6 | 4.8 | 0.00 | 0.00 | 0.00 | 70 | 985.1 |
| 20260905101002 | 14 | 117 | 0.0 | 4.8 | 0.00 | 0.00 | 0.00 | 70 | 985.0 |
| 20260905100501 | 14 | 103 | 0.0 | 4.8 | 0.00 | 0.00 | 0.00 | 69 | 985.1 |
| 20260905100002 | 14 | 102 | 0.0 | 6.4 | 0.00 | 0.00 | 0.00 | 70 | 985.1 |
| 20260905095501 | 14 | 123 | 3.2 | 9.7 | 0.00 | 0.00 | 0.00 | 70 | 985.2 |
| 20260905095100 | 14 | 360 | 3.2 | 6.4 | 0.00 | 0.00 | 0.00 | 70 | 985.2 |
| 20260905094600 | 14 | 120 | 3.2 | 4.8 | 0.00 | 0.00 | 0.00 | 70 | 985.1 |
| 20260905094059 | 14 | 107 | 1.6 | 4.8 | 0.00 | 0.00 | 0.00 | 70 | 984.9 |
| 20260905093559 | 14 | 117 | 1.6 | 6.4 | 0.00 | 0.00 | 0.00 | 70 | 985.0 |
| 20260905093059 | 14 | 102 | 3.2 | 6.4 | 0.00 | 0.00 | 0.00 | 70 | 985.1 |
| 20260905092602 | 14 | 123 | 0.0 | 3.2 | 0.00 | 0.00 | 0.00 | 70 | 984.9 |
| 20260905092058 | 14 | 123 | 0.0 | 3.2 | 0.00 | 0.00 | 0.00 | 70 | 985.0 |
| 20260905091608 | 14 | 123 | 0.0 | 3.2 | 0.00 | 0.00 | 0.00 | 70 | 985.0 |
| 20260905091100 | 14 | 123 | 0.0 | 4.8 | 0.00 | 0.00 | 0.00 | 69 | 985.1 |
| 20260905090559 | 14 | 123 | 1.6 | 4.8 | 0.00 | 0.00 | 0.00 | 69 | 985.2 |
| 20260905090056 | 14 | 123 | 1.6 | 4.8 | 0.00 | 0.00 | 0.00 | 69 | 985.5 |
| 20260905085556 | 14 | 123 | 1.6 | 4.8 | 0.00 | 0.00 | 0.00 | 69 | 985.5 |
| 20260905085055 | 14 | 98 | 0.0 | 4.8 | 0.00 | 0.00 | 0.00 | 69 | 985.5 |
| 20260905084558 | 14 | 98 | 0.0 | 4.8 | 0.00 | 0.00 | 0.00 | 69 | 985.5 |
| 20260905084054 | 14 | 97 | 0.0 | 4.8 | 0.00 | 0.00 | 0.00 | 69 | 985.6 |
| 20260905083553 | 14 | 110 | 0.0 | 3.2 | 0.00 | 0.00 | 0.00 | 69 | 985.7 |
| 20260905083107 | 14 | 106 | 0.0 | 3.2 | 0.00 | 0.00 | 0.00 | 69 | 985.8 |
| 20260905082551 | 14 | 105 | 0.0 | 4.8 | 0.00 | 0.00 | 0.00 | 69 | 985.9 |
| 20260905082051 | 14 | 105 | 1.6 | 4.8 | 0.00 | 0.00 | 0.00 | 69 | 986.0 |
| 20260905081550 | 15 | 110 | 1.6 | 4.8 | 0.00 | 0.00 | 0.00 | 69 | 986.0 |
| 20260905081049 | 15 | 113 | 1.6 | 4.8 | 0.00 | 0.00 | 0.00 | 69 | 986.1 |
| 20260905080548 | 15 | 110 | 3.2 | 6.4 | 0.00 | 0.00 | 0.00 | 69 | 986.1 |
| 20260905080048 | 15 | 100 | 1.6 | 6.4 | 0.00 | 0.00 | 0.00 | 68 | 986.1 |
| 20260905075547 | 15 | 117 | 1.6 | 4.8 | 0.00 | 0.00 | 0.00 | 68 | 985.9 |
| 20260905075046 | 15 | 117 | 1.6 | 4.8 | 0.00 | 0.00 | 0.00 | 68 | 986.1 |
| 20260905074548 | 15 | 125 | 1.6 | 6.4 | 0.00 | 0.00 | 0.00 | 68 | 985.9 |
| 20260905074045 | 15 | 138 | 3.2 | 6.4 | 0.00 | 0.00 | 0.00 | 69 | 986.0 |
| 20260905073545 | 15 | 139 | 1.6 | 6.4 | 0.00 | 0.00 | 0.00 | 68 | 986.0 |
| 20260905073045 | 15 | 143 | 3.2 | 6.4 | 0.00 | 0.00 | 0.00 | 69 | 986.1 |
| 20260905072549 | 15 | 129 | 1.6 | 6.4 | 0.00 | 0.00 | 0.00 | 69 | 986.1 |
| 20260905072044 | 15 | 123 | 3.2 | 6.4 | 0.00 | 0.00 | 0.00 | 69 | 986.0 |
| 20260905071544 | 15 | 126 | 1.6 | 4.8 | 0.00 | 0.00 | 0.00 | 68 | 985.9 |
| 20260905071044 | 15 | 89 | 0.0 | 1.6 | 0.00 | 0.00 | 0.00 | 68 | 986.0 |
| 20260905070544 | 15 | 89 | 0.0 | 6.4 | 0.00 | 0.00 | 0.00 | 68 | 986.0 |
| 20260905070042 | 15 | 89 | 1.6 | 6.4 | 0.00 | 0.00 | 0.00 | 68 | 985.9 |
| 20260905065541 | 16 | 121 | 1.6 | 4.8 | 0.00 | 0.00 | 0.00 | 68 | 985.9 |
| 20260905065040 | 16 | 123 | 0.0 | 6.4 | 0.00 | 0.00 | 0.00 | 68 | 985.9 |
| 20260905064541 | 16 | 124 | 1.6 | 6.4 | 0.00 | 0.00 | 0.00 | 68 | 985.9 |
| 20260905064041 | 16 | 105 | 1.6 | 3.2 | 0.00 | 0.00 | 0.00 | 68 | 986.0 |
| 20260905063540 | 16 | 109 | 0.0 | 4.8 | 0.00 | 0.00 | 0.00 | 68 | 986.0 |
| 20260905063040 | 16 | 111 | 0.0 | 4.8 | 0.00 | 0.00 | 0.00 | 68 | 986.0 |
| 20260905062540 | 16 | 360 | 0.0 | 4.8 | 0.00 | 0.00 | 0.00 | 68 | 985.9 |
| 20260905062040 | 16 | 360 | 0.0 | 3.2 | 0.00 | 0.00 | 0.00 | 68 | 985.9 |
| 20260905061542 | 16 | 115 | 0.0 | 0.0 | 0.00 | 0.00 | 0.00 | 68 | 985.9 |
| 20260905061037 | 16 | 115 | 0.0 | 0.0 | 0.00 | 0.00 | 0.00 | 68 | 985.9 |
| 20260905060538 | 16 | 115 | 0.0 | 0.0 | 0.00 | 0.00 | 0.00 | 68 | 985.9 |
| 20260905060044 | 16 | 115 | 0.0 | 1.6 | 0.00 | 0.00 | 0.00 | 67 | 985.9 |
| 20260905055537 | 16 | 115 | 0.0 | 1.6 | 0.00 | 0.00 | 0.00 | 67 | 986.0 |
| 20260905055036 | 16 | 115 | 0.0 | 1.6 | 0.00 | 0.00 | 0.00 | 67 | 985.9 |
| 20260905054602 | 16 | 115 | 0.0 | 0.0 | 0.00 | 0.00 | 0.00 | 67 | 986.0 |
| 20260905054036 | 16 | 115 | 0.0 | 0.0 | 0.00 | 0.00 | 0.00 | 67 | 986.0 |
| 20260905053539 | 16 | 115 | 0.0 | 1.6 | 0.00 | 0.00 | 0.00 | 67 | 986.0 |
| 20260905053035 | 16 | 115 | 0.0 | 1.6 | 0.00 | 0.00 | 0.00 | 67 | 986.0 |
| 20260905052533 | 16 | 115 | 0.0 | 1.6 | 0.00 | 0.00 | 0.00 | 67 | 986.0 |
| 20260905052033 | 16 | 115 | 0.0 | 1.6 | 0.00 | 0.00 | 0.00 | 67 | 986.1 |
| 20260905051534 | 16 | 115 | 0.0 | 0.0 | 0.00 | 0.00 | 0.00 | 67 | 986.2 |
| 20260905051031 | 16 | 115 | 0.0 | 0.0 | 0.00 | 0.00 | 0.00 | 67 | 986.1 |
| 20260905050534 | 16 | 115 | 0.0 | 0.0 | 0.00 | 0.00 | 0.00 | 67 | 985.9 |
| 20260905050031 | 17 | 115 | 0.0 | 0.0 | 0.00 | 0.00 | 0.00 | 67 | 985.8 |
| 20260905045533 | 17 | 115 | 0.0 | 0.0 | 0.00 | 0.00 | 0.00 | 67 | 985.7 |
| 20260905045029 | 17 | 115 | 0.0 | 0.0 | 0.00 | 0.00 | 0.00 | 67 | 985.7 |
| 20260905044530 | 17 | 115 | 0.0 | 0.0 | 0.00 | 0.00 | 0.00 | 67 | 985.8 |
| 20260905044028 | 17 | 115 | 0.0 | 1.6 | 0.00 | 0.00 | 0.00 | 67 | 985.7 |
| 20260905043528 | 17 | 115 | 0.0 | 1.6 | 0.00 | 0.00 | 0.00 | 67 | 985.8 |
| 20260905043029 | 17 | 115 | 0.0 | 0.0 | 0.00 | 0.00 | 0.00 | 67 | 985.8 |
| 20260905042528 | 17 | 115 | 0.0 | 0.0 | 0.00 | 0.00 | 0.00 | 67 | 985.7 |
| 20260905042028 | 17 | 115 | 0.0 | 0.0 | 0.00 | 0.00 | 0.00 | 67 | 985.6 |
| 20260905041528 | 17 | 115 | 0.0 | 0.0 | 0.00 | 0.00 | 0.00 | 67 | 985.7 |
| 20260905041027 | 17 | 115 | 0.0 | 0.0 | 0.00 | 0.00 | 0.00 | 66 | 985.6 |
| 20260905040531 | 17 | 115 | 0.0 | 0.0 | 0.00 | 0.00 | 0.00 | 66 | 985.6 |
| 20260905040027 | 17 | 115 | 0.0 | 0.0 | 0.00 | 0.00 | 0.00 | 66 | 985.5 |
| 20260905035528 | 17 | 115 | 0.0 | 0.0 | 0.00 | 0.00 | 0.00 | 66 | 985.5 |
| 20260905035028 | 17 | 115 | 0.0 | 0.0 | 0.00 | 0.00 | 0.00 | 65 | 985.5 |
| 20260905034527 | 17 | 115 | 0.0 | 0.0 | 0.00 | 0.00 | 0.00 | 65 | 985.6 |
| 20260905034027 | 17 | 115 | 0.0 | 0.0 | 0.00 | 0.00 | 0.00 | 64 | 985.6 |
| 20260905033528 | 17 | 115 | 0.0 | 0.0 | 0.00 | 0.00 | 0.00 | 65 | 985.6 |
| 20260905033028 | 17 | 115 | 0.0 | 0.0 | 0.00 | 0.00 | 0.00 | 64 | 985.6 |
| 20260905032526 | 17 | 115 | 0.0 | 0.0 | 0.00 | 0.00 | 0.00 | 64 | 985.5 |
| 20260905032026 | 17 | 115 | 0.0 | 0.0 | 0.00 | 0.00 | 0.00 | 64 | 985.7 |
| 20260905031526 | 18 | 115 | 0.0 | 0.0 | 0.00 | 0.00 | 0.00 | 64 | 985.6 |
| 20260905031025 | 18 | 115 | 0.0 | 0.0 | 0.00 | 0.00 | 0.00 | 64 | 985.6 |
| 20260905030526 | 18 | 115 | 0.0 | 0.0 | 0.00 | 0.00 | 0.00 | 64 | 985.6 |
| 20260905030033 | 18 | 115 | 0.0 | 0.0 | 0.00 | 0.00 | 0.00 | 64 | 985.5 |
| 20260905025527 | 18 | 115 | 0.0 | 0.0 | 0.00 | 0.00 | 0.00 | 63 | 985.4 |
| 20260905025026 | 18 | 115 | 0.0 | 1.6 | 0.00 | 0.00 | 0.00 | 64 | 985.6 |
| 20260905024525 | 18 | 115 | 0.0 | 1.6 | 0.00 | 0.00 | 0.00 | 64 | 985.5 |
| 20260905024024 | 18 | 115 | 0.0 | 1.6 | 0.00 | 0.00 | 0.00 | 63 | 985.5 |
| 20260905023525 | 18 | 115 | 0.0 | 0.0 | 0.00 | 0.00 | 0.00 | 63 | 985.4 |
| 20260905023024 | 18 | 115 | 0.0 | 0.0 | 0.00 | 0.00 | 0.00 | 62 | 985.4 |
| 20260905022524 | 18 | 115 | 0.0 | 0.0 | 0.00 | 0.00 | 0.00 | 62 | 985.4 |
| 20260905022026 | 19 | 115 | 0.0 | 0.0 | 0.00 | 0.00 | 0.00 | 61 | 985.4 |
| 20260905021525 | 19 | 115 | 0.0 | 0.0 | 0.00 | 0.00 | 0.00 | 61 | 985.3 |
| 20260905021024 | 19 | 115 | 0.0 | 0.0 | 0.00 | 0.00 | 0.00 | 61 | 985.0 |
| 20260905020527 | 19 | 115 | 0.0 | 3.2 | 0.00 | 0.00 | 0.00 | 61 | 985.2 |
| 20260905020023 | 19 | 115 | 0.0 | 3.2 | 0.00 | 0.00 | 0.00 | 61 | 985.2 |
| 20260905015523 | 20 | 115 | 0.0 | 1.6 | 0.00 | 0.00 | 0.00 | 61 | 985.2 |
| 20260905015024 | 20 | 115 | 0.0 | 0.0 | 0.00 | 0.00 | 0.00 | 60 | 985.0 |
| 20260905014523 | 20 | 115 | 0.0 | 0.0 | 0.00 | 0.00 | 0.00 | 60 | 984.9 |
| 20260905014022 | 20 | 115 | 0.0 | 0.0 | 0.00 | 0.00 | 0.00 | 59 | 984.9 |
| 20260905013524 | 20 | 115 | 0.0 | 0.0 | 0.00 | 0.00 | 0.00 | 58 | 984.9 |
| 20260905013022 | 20 | 115 | 0.0 | 0.0 | 0.00 | 0.00 | 0.00 | 57 | 984.8 |
| 20260905012524 | 21 | 115 | 0.0 | 0.0 | 0.00 | 0.00 | 0.00 | 57 | 984.8 |
| 20260905012022 | 21 | 115 | 0.0 | 0.0 | 0.00 | 0.00 | 0.00 | 58 | 984.8 |
| 20260905011522 | 21 | 115 | 0.0 | 0.0 | 0.00 | 0.00 | 0.00 | 58 | 984.8 |
| 20260905011022 | 21 | 115 | 0.0 | 0.0 | 0.00 | 0.00 | 0.00 | 57 | 984.6 |
| 20260905010521 | 22 | 115 | 0.0 | 1.6 | 0.00 | 0.00 | 0.00 | 57 | 984.6 |
| 20260905010021 | 22 | 115 | 0.0 | 1.6 | 0.00 | 0.00 | 0.00 | 57 | 984.6 |
| 20260905005521 | 22 | 115 | 0.0 | 0.0 | 0.00 | 0.00 | 0.00 | 56 | 984.6 |
| 20260905005021 | 23 | 115 | 0.0 | 0.0 | 0.00 | 0.00 | 0.00 | 56 | 984.5 |
| 20260905004521 | 23 | 115 | 0.0 | 1.6 | 0.00 | 0.00 | 0.00 | 56 | 984.3 |
| 20260905004021 | 23 | 115 | 0.0 | 1.6 | 0.00 | 0.00 | 0.00 | 56 | 984.3 |
| 20260905003521 | 23 | 115 | 0.0 | 1.6 | 0.00 | 0.00 | 0.00 | 56 | 984.4 |
| 20260905003023 | 23 | 360 | 0.0 | 4.8 | 0.00 | 0.00 | 0.00 | 56 | 984.5 |
| 20260905002522 | 23 | 360 | 1.6 | 9.7 | 0.00 | 0.00 | 0.00 | 55 | 984.6 |
| 20260905002020 | 23 | 123 | 1.6 | 6.4 | 0.00 | 0.00 | 0.00 | 55 | 984.6 |
| 20260905001521 | 24 | 87 | 1.6 | 8.0 | 0.00 | 0.00 | 0.00 | 55 | 984.6 |
| 20260905001021 | 24 | 76 | 3.2 | 8.0 | 0.00 | 0.00 | 0.00 | 55 | 984.7 |
| 20260905000526 | 24 | 130 | 1.6 | 9.7 | 0.00 | 0.00 | 0.00 | 55 | 984.7 |
| 20260905000031 | 24 | 114 | 3.2 | 9.7 | 0.00 | 0.00 | 0.00 | 55 | 984.8 |
| 20260904235521 | 24 | 124 | 4.8 | 9.7 | 0.00 | 0.00 | 0.00 | 55 | 984.9 |
| 20260904235019 | 24 | 144 | 3.2 | 6.4 | 0.00 | 0.00 | 0.00 | 55 | 984.9 |
| 20260904234522 | 24 | 117 | 3.2 | 12.9 | 0.00 | 0.00 | 0.00 | 54 | 984.8 |
| 20260904234019 | 25 | 128 | 4.8 | 16.1 | 0.00 | 0.00 | 0.00 | 54 | 984.9 |
| 20260904233519 | 25 | 123 | 6.4 | 16.1 | 0.00 | 0.00 | 0.00 | 54 | 984.9 |
| 20260904233020 | 25 | 360 | 4.8 | 12.9 | 0.00 | 0.00 | 0.00 | 54 | 984.8 |
| 20260904232518 | 25 | 132 | 6.4 | 12.9 | 0.00 | 0.00 | 0.00 | 54 | 984.8 |
| 20260904232020 | 25 | 137 | 4.8 | 12.9 | 0.00 | 0.00 | 0.00 | 53 | 984.8 |
| 20260904231520 | 25 | 66 | 4.8 | 12.9 | 0.00 | 0.00 | 0.00 | 53 | 984.7 |
| 20260904231018 | 25 | 138 | 3.2 | 14.5 | 0.00 | 0.00 | 0.00 | 54 | 984.7 |
| 20260904230518 | 25 | 107 | 8.0 | 14.5 | 0.00 | 0.00 | 0.00 | 53 | 984.8 |
| 20260904230019 | 25 | 101 | 8.0 | 12.9 | 0.00 | 0.00 | 0.00 | 54 | 984.8 |
| 20260904225519 | 25 | 140 | 6.4 | 19.3 | 0.00 | 0.00 | 0.00 | 54 | 984.8 |
| 20260904225017 | 25 | 91 | 9.7 | 19.3 | 0.00 | 0.00 | 0.00 | 53 | 984.7 |
| 20260904224520 | 25 | 144 | 8.0 | 17.7 | 0.00 | 0.00 | 0.00 | 53 | 984.9 |
| 20260904224017 | 25 | 86 | 8.0 | 19.3 | 0.00 | 0.00 | 0.00 | 53 | 984.8 |
| 20260904223516 | 25 | 360 | 11.3 | 19.3 | 0.00 | 0.00 | 0.00 | 52 | 984.8 |
| 20260904223019 | 26 | 92 | 6.4 | 12.9 | 0.00 | 0.00 | 0.00 | 52 | 984.6 |
| 20260904222519 | 26 | 96 | 4.8 | 9.7 | 0.00 | 0.00 | 0.00 | 49 | 984.8 |
| 20260904222016 | 26 | 79 | 1.6 | 14.5 | 0.00 | 0.00 | 0.00 | 50 | 984.7 |
| 20260904221516 | 26 | 115 | 1.6 | 14.5 | 0.00 | 0.00 | 0.00 | 49 | 984.7 |
| 20260904221017 | 26 | 181 | 3.2 | 8.0 | 0.00 | 0.00 | 0.00 | 48 | 984.7 |
| 20260904220517 | 26 | 86 | 3.2 | 9.7 | 0.00 | 0.00 | 0.00 | 49 | 984.7 |
| 20260904220017 | 26 | 360 | 4.8 | 11.3 | 0.00 | 0.00 | 0.00 | 49 | 984.7 |
| 20260904215517 | 26 | 88 | 1.6 | 9.7 | 0.00 | 0.00 | 0.00 | 50 | 984.7 |
| 20260904215015 | 26 | 88 | 3.2 | 11.3 | 0.00 | 0.00 | 0.00 | 51 | 984.6 |
| 20260904214515 | 26 | 86 | 1.6 | 14.5 | 0.00 | 0.00 | 0.00 | 50 | 984.6 |
| 20260904214015 | 26 | 88 | 8.0 | 14.5 | 0.00 | 0.00 | 0.00 | 49 | 984.5 |
| 20260904213516 | 26 | 116 | 4.8 | 11.3 | 0.00 | 0.00 | 0.00 | 49 | 984.5 |
| 20260904213015 | 26 | 136 | 6.4 | 12.9 | 0.00 | 0.00 | 0.00 | 50 | 984.4 |
| 20260904212515 | 26 | 122 | 6.4 | 12.9 | 0.00 | 0.00 | 0.00 | 49 | 984.4 |
| 20260904212014 | 26 | 107 | 1.6 | 16.1 | 0.00 | 0.00 | 0.00 | 50 | 984.3 |
| 20260904211515 | 26 | 140 | 1.6 | 16.1 | 0.00 | 0.00 | 0.00 | 50 | 984.4 |
| 20260904211013 | 26 | 174 | 4.8 | 12.9 | 0.00 | 0.00 | 0.00 | 50 | 984.3 |
| 20260904210512 | 26 | 89 | 1.6 | 11.3 | 0.00 | 0.00 | 0.00 | 49 | 984.3 |
| 20260904210016 | 26 | 107 | 6.4 | 12.9 | 0.00 | 0.00 | 0.00 | 49 | 984.3 |
| 20260904205512 | 26 | 98 | 4.8 | 12.9 | 0.00 | 0.00 | 0.00 | 49 | 984.6 |
| 20260904205011 | 26 | 34 | 1.6 | 11.3 | 0.00 | 0.00 | 0.00 | 49 | 984.5 |
| 20260904204511 | 26 | 123 | 3.2 | 12.9 | 0.00 | 0.00 | 0.00 | 51 | 984.5 |
| 20260904204014 | 26 | 132 | 4.8 | 12.9 | 0.00 | 0.00 | 0.00 | 49 | 984.6 |
| 20260904203511 | 25 | 109 | 4.8 | 9.7 | 0.00 | 0.00 | 0.00 | 50 | 984.6 |
| 20260904203010 | 25 | 156 | 1.6 | 12.9 | 0.00 | 0.00 | 0.00 | 50 | 984.7 |
| 20260904202509 | 25 | 100 | 4.8 | 12.9 | 0.00 | 0.00 | 0.00 | 51 | 984.6 |
| 20260904202012 | 25 | 84 | 6.4 | 12.9 | 0.00 | 0.00 | 0.00 | 50 | 984.6 |
| 20260904201509 | 25 | 100 | 3.2 | 12.9 | 0.00 | 0.00 | 0.00 | 50 | 984.7 |
| 20260904201009 | 25 | 110 | 3.2 | 11.3 | 0.00 | 0.00 | 0.00 | 50 | 984.8 |
| 20260904200508 | 25 | 86 | 1.6 | 11.3 | 0.00 | 0.00 | 0.00 | 50 | 984.7 |
| 20260904200008 | 25 | 121 | 3.2 | 11.3 | 0.00 | 0.00 | 0.00 | 50 | 984.8 |
| 20260904195511 | 25 | 103 | 4.8 | 9.7 | 0.00 | 0.03 | 0.00 | 44 | 984.8 |
| 20260904195006 | 25 | 360 | 3.2 | 11.3 | 0.00 | 0.03 | 0.00 | 44 | 984.9 |
| 20260904194505 | 25 | 137 | 4.8 | 11.3 | 0.00 | 0.03 | 0.00 | 44 | 984.9 |
| 20260904194006 | 25 | 100 | 1.6 | 11.3 | 0.00 | 0.03 | 0.00 | 45 | 984.9 |
| 20260904193505 | 25 | 112 | 3.2 | 12.9 | 0.00 | 0.03 | 0.00 | 45 | 984.9 |
| 20260904193005 | 25 | 54 | 4.8 | 12.9 | 0.00 | 0.03 | 0.00 | 46 | 985.0 |
| 20260904192506 | 25 | 78 | 3.2 | 12.9 | 0.00 | 0.03 | 0.00 | 45 | 985.0 |
| 20260904192004 | 25 | 76 | 4.8 | 11.3 | 0.00 | 0.03 | 0.00 | 46 | 985.0 |
| 20260904191503 | 24 | 151 | 1.6 | 11.3 | 0.00 | 0.03 | 0.00 | 45 | 985.1 |
| 20260904191004 | 24 | 170 | 1.6 | 11.3 | 0.00 | 0.03 | 0.00 | 46 | 985.2 |
| 20260904190504 | 24 | 86 | 3.2 | 14.5 | 0.00 | 0.03 | 0.00 | 48 | 985.2 |
| 20260904190003 | 24 | 67 | 3.2 | 9.7 | 0.00 | 0.03 | 0.00 | 48 | 985.3 |
| 20260904185500 | 24 | 169 | 3.2 | 8.0 | 0.00 | 0.03 | 0.00 | 47 | 985.2 |
| 20260904185059 | 23 | 140 | 1.6 | 12.9 | 0.00 | 0.03 | 0.00 | 49 | 985.4 |
| 20260904184616 | 23 | 136 | 4.8 | 12.9 | 0.00 | 0.03 | 0.00 | 48 | 985.4 |
| 20260904184059 | 23 | 90 | 0.0 | 6.4 | 0.00 | 0.03 | 0.00 | 50 | 985.4 |
| 20260904183559 | 23 | 90 | 0.0 | 8.0 | 0.00 | 0.03 | 0.00 | 47 | 985.5 |
| 20260904183059 | 23 | 171 | 1.6 | 8.0 | 0.00 | 0.03 | 0.00 | 48 | 985.6 |
| 20260904182602 | 23 | 146 | 3.2 | 8.0 | 0.00 | 0.03 | 0.00 | 48 | 985.6 |
| 20260904182058 | 23 | 100 | 4.8 | 8.0 | 0.00 | 0.03 | 0.00 | 48 | 985.6 |
| 20260904181557 | 23 | 83 | 4.8 | 9.7 | 0.00 | 0.03 | 0.00 | 50 | 985.6 |
| 20260904181155 | 23 | 11 | 1.6 | 6.4 | 0.00 | 0.03 | 0.00 | 51 | 985.7 |
| 20260904180555 | 23 | 9 | 0.0 | 4.8 | 0.00 | 0.03 | 0.00 | 51 | 985.5 |
| 20260904180054 | 23 | 355 | 0.0 | 8.0 | 0.00 | 0.03 | 0.00 | 52 | 985.5 |
| 20260904175553 | 23 | 44 | 1.6 | 8.0 | 0.00 | 0.03 | 0.00 | 53 | 985.5 |
| 20260904175052 | 23 | 21 | 3.2 | 14.5 | 0.00 | 0.03 | 0.00 | 52 | 985.6 |
| 20260904174551 | 23 | 29 | 3.2 | 14.5 | 0.00 | 0.03 | 0.00 | 54 | 985.4 |
| 20260904174050 | 22 | 348 | 1.6 | 14.5 | 0.00 | 0.03 | 0.00 | 55 | 985.0 |
| 20260904173548 | 22 | 107 | 1.6 | 9.7 | 0.00 | 0.03 | 0.00 | 56 | 985.0 |
| 20260904173100 | 22 | 26 | 3.2 | 12.9 | 0.00 | 0.03 | 0.00 | 57 | 985.0 |
| 20260904172546 | 22 | 61 | 1.6 | 12.9 | 0.00 | 0.03 | 0.00 | 57 | 985.0 |
| 20260904172045 | 22 | 74 | 4.8 | 12.9 | 0.00 | 0.03 | 0.00 | 59 | 985.1 |
| 20260904171547 | 21 | 19 | 1.6 | 14.5 | 0.00 | 0.03 | 0.00 | 61 | 985.2 |
| 20260904171042 | 21 | 360 | 4.8 | 12.9 | 0.00 | 0.03 | 0.00 | 63 | 985.2 |
| 20260904170541 | 21 | 13 | 6.4 | 14.5 | 0.00 | 0.03 | 0.00 | 64 | 985.2 |
| 20260904170041 | 20 | 74 | 6.4 | 14.5 | 0.00 | 0.03 | 0.00 | 66 | 985.3 |
| 20260904165540 | 20 | 22 | 1.6 | 14.5 | 0.00 | 0.03 | 0.00 | 68 | 985.3 |
| 20260904165036 | 19 | 22 | 1.6 | 16.1 | 0.00 | 0.03 | 0.00 | 69 | 985.3 |
| 20260904164534 | 19 | 355 | 4.8 | 16.1 | 0.00 | 0.03 | 0.00 | 70 | 985.4 |
| 20260904164033 | 18 | 314 | 4.8 | 9.7 | 0.00 | 0.03 | 0.00 | 70 | 985.6 |
| 20260904163532 | 18 | 336 | 3.2 | 8.0 | 0.00 | 0.03 | 0.00 | 70 | 985.5 |
| 20260904163030 | 18 | 349 | 1.6 | 8.0 | 0.00 | 0.03 | 0.00 | 71 | 985.5 |
| 20260904162529 | 18 | 22 | 4.8 | 12.9 | 0.00 | 0.03 | 0.00 | 70 | 985.5 |
| 20260904162027 | 17 | 338 | 6.4 | 12.9 | 0.00 | 0.03 | 0.00 | 71 | 985.7 |
| 20260904161526 | 17 | 347 | 4.8 | 9.7 | 0.00 | 0.03 | 0.00 | 71 | 985.5 |
| 20260904161028 | 17 | 22 | 4.8 | 9.7 | 0.00 | 0.03 | 0.00 | 70 | 985.4 |
| 20260904160525 | 17 | 355 | 1.6 | 14.5 | 0.00 | 0.03 | 0.00 | 71 | 985.3 |
| 20260904160021 | 17 | 29 | 6.4 | 14.5 | 0.00 | 0.03 | 0.00 | 71 | 985.3 |
| 20260904155520 | 17 | 342 | 6.4 | 16.1 | 0.00 | 0.03 | 0.00 | 70 | 985.2 |
| 20260904155018 | 17 | 360 | 6.4 | 16.1 | 0.00 | 0.03 | 0.00 | 71 | 985.2 |
| 20260904154516 | 16 | 327 | 8.0 | 14.5 | 0.00 | 0.03 | 0.00 | 71 | 985.4 |
| 20260904154016 | 16 | 360 | 8.0 | 14.5 | 0.00 | 0.03 | 0.00 | 71 | 985.4 |
| 20260904153517 | 16 | 9 | 6.4 | 12.9 | 0.00 | 0.03 | 0.00 | 71 | 985.4 |
| 20260904153016 | 16 | 332 | 8.0 | 12.9 | 0.00 | 0.03 | 0.00 | 71 | 985.4 |
| 20260904152514 | 16 | 341 | 3.2 | 9.7 | 0.00 | 0.03 | 0.00 | 71 | 985.3 |
| 20260904152014 | 16 | 339 | 4.8 | 9.7 | 0.00 | 0.03 | 0.00 | 71 | 985.4 |
| 20260904151514 | 16 | 345 | 3.2 | 9.7 | 0.00 | 0.03 | 0.00 | 71 | 985.4 |
| 20260904151013 | 16 | 340 | 4.8 | 9.7 | 0.00 | 0.03 | 0.00 | 71 | 985.3 |
| 20260904150512 | 16 | 360 | 6.4 | 12.9 | 0.00 | 0.03 | 0.00 | 71 | 985.3 |
| 20260904150013 | 16 | 345 | 6.4 | 12.9 | 0.00 | 0.03 | 0.00 | 71 | 985.2 |
| 20260904145510 | 15 | 347 | 6.4 | 9.7 | 0.00 | 0.03 | 0.00 | 71 | 985.2 |
| 20260904145009 | 15 | 300 | 6.4 | 9.7 | 0.00 | 0.03 | 0.00 | 71 | 985.2 |
| 20260904144509 | 15 | 306 | 4.8 | 9.7 | 0.00 | 0.03 | 0.00 | 71 | 985.2 |
| 20260904144008 | 15 | 360 | 4.8 | 9.7 | 0.00 | 0.03 | 0.00 | 71 | 985.2 |
| 20260904143508 | 15 | 351 | 4.8 | 12.9 | 0.00 | 0.03 | 0.00 | 71 | 985.2 |
| 20260904143008 | 15 | 344 | 4.8 | 12.9 | 0.00 | 0.03 | 0.00 | 71 | 985.3 |
| 20260904142508 | 15 | 360 | 6.4 | 9.7 | 0.00 | 0.03 | 0.00 | 71 | 985.4 |
| 20260904142011 | 15 | 274 | 3.2 | 9.7 | 0.00 | 0.03 | 0.00 | 71 | 985.4 |
| 20260904141507 | 15 | 281 | 4.8 | 8.0 | 0.00 | 0.03 | 0.00 | 71 | 985.3 |
| 20260904141006 | 14 | 296 | 4.8 | 8.0 | 0.00 | 0.03 | 0.00 | 71 | 985.3 |
| 20260904140506 | 14 | 303 | 1.6 | 6.4 | 0.00 | 0.03 | 0.00 | 71 | 985.3 |
| 20260904140007 | 14 | 360 | 1.6 | 8.0 | 0.00 | 0.03 | 0.00 | 71 | 985.3 |
| 20260904135507 | 14 | 331 | 3.2 | 8.0 | 0.00 | 0.03 | 0.00 | 71 | 985.3 |
| 20260904135005 | 13 | 360 | 3.2 | 9.7 | 0.00 | 0.03 | 0.00 | 71 | 985.3 |
| 20260904134508 | 13 | 277 | 4.8 | 9.7 | 0.00 | 0.03 | 0.00 | 71 | 985.2 |
| 20260904134006 | 13 | 298 | 3.2 | 8.0 | 0.00 | 0.03 | 0.00 | 71 | 985.1 |
| 20260904133507 | 13 | 360 | 3.2 | 6.4 | 0.00 | 0.03 | 0.00 | 71 | 985.2 |
| 20260904133004 | 13 | 306 | 3.2 | 6.4 | 0.00 | 0.03 | 0.00 | 71 | 985.1 |
| 20260904132504 | 13 | 307 | 3.2 | 9.7 | 0.00 | 0.03 | 0.00 | 71 | 985.0 |
| 20260904132003 | 13 | 283 | 4.8 | 9.7 | 0.00 | 0.03 | 0.00 | 71 | 985.0 |
| 20260904131504 | 13 | 282 | 1.6 | 6.4 | 0.00 | 0.03 | 0.00 | 71 | 985.0 |
| 20260904131004 | 13 | 300 | 3.2 | 6.4 | 0.00 | 0.03 | 0.00 | 71 | 985.0 |
| 20260904130507 | 13 | 287 | 1.6 | 6.4 | 0.00 | 0.03 | 0.00 | 71 | 985.0 |
| 20260904130103 | 13 | 360 | 3.2 | 4.8 | 0.00 | 0.03 | 0.00 | 71 | 985.1 |
| 20260904125502 | 12 | 267 | 3.2 | 4.8 | 0.00 | 0.03 | 0.00 | 71 | 985.0 |
| 20260904125002 | 12 | 294 | 1.6 | 6.4 | 0.00 | 0.03 | 0.00 | 71 | 984.9 |
| 20260904124613 | 12 | 292 | 1.6 | 6.4 | 0.00 | 0.03 | 0.00 | 71 | 984.8 |
| 20260904124059 | 12 | 297 | 1.6 | 6.4 | 0.00 | 0.03 | 0.00 | 71 | 984.8 |
| 20260904123603 | 12 | 288 | 1.6 | 4.8 | 0.00 | 0.03 | 0.00 | 71 | 984.7 |
| 20260904123103 | 12 | 287 | 0.0 | 0.0 | 0.00 | 0.03 | 0.00 | 71 | 984.7 |
| 20260904122559 | 12 | 286 | 0.0 | 0.0 | 0.00 | 0.03 | 0.00 | 71 | 984.7 |
| 20260904122059 | 12 | 286 | 0.0 | 0.0 | 0.00 | 0.03 | 0.00 | 71 | 984.6 |
| 20260904121558 | 12 | 275 | 0.0 | 0.0 | 0.00 | 0.03 | 0.00 | 71 | 984.6 |
| 20260904121103 | 12 | 275 | 0.0 | 1.6 | 0.00 | 0.03 | 0.00 | 71 | 984.6 |
| 20260904120556 | 12 | 275 | 0.0 | 3.2 | 0.00 | 0.03 | 0.00 | 71 | 984.4 |
| 20260904120056 | 12 | 275 | 0.0 | 4.8 | 0.00 | 0.03 | 0.00 | 71 | 984.4 |
| 20260904115600 | 12 | 275 | 1.6 | 4.8 | 0.00 | 0.03 | 0.00 | 71 | 984.3 |